Regional Weather Roundup
Issued by NWS

Home | Current Version | Previous Version | Graphics & Text | Print | Product List | Glossary On
Versions: 1 2 3 4 5 6 7 8 9 10 11 12 13 14 15 16 17 18 19 20 21 22 23 24 25 26 27 28 29 30 31 32 33 34 35 36 37 38 39 40 41 42 43 44 45 46 47 48 49 50
000
ASUS45 KABQ 271310
RWRNM
NEW MEXICO REGIONAL WEATHER ROUNDUP
NATIONAL WEATHER SERVICE ALBUQUERQUE NM
700 AM MDT MON MAR 27 2017

NOTE: "FAIR" MEANS FEW OR NO CLOUDS BELOW 12,000 FEET AGL WITH NO
       SIGNIFICANT WEATHER OR OBSTRUCTIONS TO VISION.

      THIS PRODUCT IS RELEASED AS TWO VERSIONS.  ONE VERSION NEAR
      THE TOP OF THE HOUR CONTAINING PRELIMINARY DATA FROM ALBUQUERQUE
      AND OTHER STATIONS.  A FINAL VERSION WITH ADDITIONAL DATA IS
      ISSUED ABOUT 10 MINUTES AFTER THE HOUR.

NMZ501-503-504-510>518-271400-
NORTHWEST PLATEAU/NORTHCENTRAL MOUNTAINS

CITY           SKY/WX    TMP DP  RH WIND       PRES   REMARKS
FARMINGTON     FAIR      33  27  78 E7        29.98R WCI  27
LOS ALAMOS     MOCLDY    40  25  53 S3        30.03S
SANTA FE       FAIR      28  23  81 N6        30.00S WCI  22
TAOS             N/A     27  18  69 N5        30.02S WCI  21
ANGEL FIRE     FAIR      24  21  91 CALM      30.05S

$$
NMZ402-403-502-505>509-271400-
WESTCENTRAL MOUNTAINS/SOUTHWEST MOUNTAINS

CITY           SKY/WX    TMP DP  RH WIND       PRES   REMARKS
GALLUP         FAIR      28  22  78 E3        30.03S
GRANTS         FAIR      22  17  83 NW13      30.06R WCI   9
SILVER CITY    FAIR      37  23  58 N8        30.02S WCI  30

$$
NMZ407-409-411-412-271400-
SOUTHERN DESERTS

CITY           SKY/WX    TMP DP  RH WIND       PRES   REMARKS
DEMING         FAIR      43  25  49 W6        29.99S
LAS CRUCES     FAIR      43  18  36 W9        30.00S
HOLLOMAN AFB   FAIR      45  18  34 SE7       30.00S
ALAMOGORDO     FAIR      43  23  45 SE9       29.98S
T OR C         FAIR      46  21  37 NW7       29.99R

$$
NMZ519>523-271400-
CENTRAL VALLEYS/CENTRAL HIGHLANDS

CITY           SKY/WX    TMP DP  RH WIND       PRES   REMARKS
ALBUQUERQUE    FAIR      42  26  53 N3        30.00S
DOUBLE EAGLE   CLEAR     30  21  69 S3        30.01S
MORIARTY ARPT  FAIR      20  15  81 CALM      30.04R
CLINES CORNERS FAIR      31  21  66 SW10      30.03R WCI  22
BELEN          FAIR      35  21  56 NW7       30.01R WCI  29
SOCORRO        FAIR      37  16  42 W3        30.00S

$$
NMZ524>526-539-540-271400-
SOUTHCENTRAL MOUNTAINS

CITY           SKY/WX    TMP DP  RH WIND       PRES   REMARKS
RUIDOSO        FAIR      39  16  38 SW8       30.06S WCI  34

$$
NMZ527>531-271400-
NORTHEAST HIGHLANDS/NORTHEAST PLAINS

CITY           SKY/WX    TMP DP  RH WIND       PRES   REMARKS
LAS VEGAS      FAIR      29  26  89 S8        30.01R WCI  21
RATON          FAIR      30  27  88 VRB3      29.99R
CLAYTON        FAIR      36  33  89 SW7       29.98S WCI  30

$$
NMZ532>537-271400-
EASTCENTRAL PLAINS

CITY           SKY/WX    TMP DP  RH WIND       PRES   REMARKS
TUCUMCARI      FAIR      38  33  82 W5        29.98S WCI  34
CANNON AFB     FAIR      35  35 100 N5        29.99R WCI  31
CLOVIS AIRPORT FAIR      36  28  75 N5        29.99R WCI  32

$$
NMZ028-029-538-271400-
SOUTHEAST PLAINS

CITY           SKY/WX    TMP DP  RH WIND       PRES   REMARKS
ROSWELL        FAIR      42  27  55 CALM        N/A
ARTESIA        FAIR      43  32  65 NW8       30.00R
CARLSBAD       FAIR      43  24  47 NW6       29.99R
HOBBS          CLEAR     39  32  75 N7        29.99R WCI  34


$$




USA.gov is the U.S. government's official web portal to all federal, state and local government web resources and services.